| time (UTC) | temp F | wind direction | speed MPH | gust MPH | rain 1hr in | rain 24hr in | rain mn in | humidity % | barometer mb |
| 20260504100204 | 67 | 330 | 3.0 | 12.0 | 0.00 | 0.00 | 0.00 | 32 | 1016.0 |
| 20260504082004 | 64 | 281 | 2.0 | 8.0 | 0.00 | 0.00 | 0.00 | 42 | 1016.1 |
| 20260504081804 | 63 | 272 | 2.0 | 8.0 | 0.00 | 0.00 | 0.00 | 41 | 1016.3 |
| 20260504081405 | 64 | 268 | 1.0 | 8.0 | 0.00 | 0.00 | 0.00 | 43 | 1016.1 |
| 20260504081205 | 64 | 278 | 2.0 | 11.0 | 0.00 | 0.00 | 0.00 | 44 | 1016.2 |
| 20260504080805 | 63 | 270 | 3.0 | 11.0 | 0.00 | 0.00 | 0.00 | 44 | 1016.5 |
| 20260504080604 | 63 | 259 | 3.0 | 11.0 | 0.00 | 0.00 | 0.00 | 45 | 1016.2 |
| 20260504080404 | 62 | 258 | 3.0 | 11.0 | 0.00 | 0.00 | 0.00 | 45 | 1016.2 |
| 20260504080204 | 63 | 262 | 3.0 | 9.0 | 0.00 | 0.00 | 0.00 | 46 | 1016.2 |
| 20260504070404 | 63 | 218 | 1.0 | 4.0 | 0.00 | 0.00 | 0.00 | 48 | 1015.9 |
| 20260504070205 | 63 | 209 | 1.0 | 4.0 | 0.00 | 0.00 | 0.00 | 50 | 1015.6 |
| 20260504060205 | 58 | 247 | 2.0 | 8.0 | 0.00 | 0.01 | 0.00 | 58 | 1015.5 |
| 20260504050605 | 52 | 222 | 1.0 | 4.0 | 0.00 | 0.01 | 0.00 | 83 | 1015.3 |
| 20260504050404 | 52 | 217 | 0.0 | 4.0 | 0.00 | 0.01 | 0.00 | 83 | 1015.4 |
| 20260504050204 | 51 | 228 | 0.0 | 4.0 | 0.00 | 0.01 | 0.00 | 83 | 1015.5 |
| 20260504050004 | 51 | 212 | 0.0 | 4.0 | 0.00 | 0.01 | 0.00 | 84 | 1015.3 |
| 20260504045804 | 50 | 181 | 0.0 | 2.0 | 0.00 | 0.01 | 0.00 | 84 | 1015.4 |
| 20260504045604 | 50 | 181 | 0.0 | 2.0 | 0.00 | 0.02 | 0.00 | 84 | 1015.4 |
| 20260504045404 | 50 | 181 | 0.0 | 2.0 | 0.00 | 0.02 | 0.00 | 85 | 1015.3 |
| 20260504045004 | 50 | 181 | 0.0 | 2.0 | 0.00 | 0.02 | 0.00 | 85 | 1015.0 |
| 20260504044804 | 49 | 181 | 0.0 | 1.0 | 0.00 | 0.02 | 0.00 | 85 | 1015.4 |
| 20260504044604 | 49 | 181 | 0.0 | 2.0 | 0.00 | 0.02 | 0.00 | 85 | 1015.2 |
| 20260504044404 | 49 | 205 | 0.0 | 2.0 | 0.00 | 0.02 | 0.00 | 85 | 1015.3 |
| 20260504044205 | 49 | 222 | 0.0 | 2.0 | 0.00 | 0.04 | 0.00 | 85 | 1015.2 |
| 20260504044005 | 49 | 222 | 0.0 | 2.0 | 0.00 | 0.04 | 0.00 | 85 | 1015.2 |
| 20260504043805 | 49 | 219 | 0.0 | 2.0 | 0.00 | 0.04 | 0.00 | 85 | 1015.1 |
| 20260504043604 | 48 | 209 | 0.0 | 2.0 | 0.00 | 0.05 | 0.00 | 85 | 1015.2 |
| 20260504043404 | 48 | 196 | 0.0 | 2.0 | 0.00 | 0.05 | 0.00 | 85 | 1015.3 |
| 20260504043204 | 48 | 181 | 0.0 | 2.0 | 0.00 | 0.05 | 0.00 | 85 | 1015.1 |
| 20260504043004 | 48 | 181 | 0.0 | 2.0 | 0.00 | 0.05 | 0.00 | 85 | 1015.1 |
| 20260504042804 | 48 | 181 | 0.0 | 2.0 | 0.00 | 0.05 | 0.00 | 85 | 1015.1 |
| 20260504042405 | 48 | 236 | 0.0 | 2.0 | 0.00 | 0.06 | 0.00 | 85 | 1015.1 |
| 20260504042204 | 48 | 214 | 0.0 | 2.0 | 0.00 | 0.06 | 0.00 | 85 | 1015.1 |
| 20260504042004 | 48 | 210 | 0.0 | 2.0 | 0.00 | 0.06 | 0.00 | 85 | 1015.0 |
| 20260504041805 | 48 | 204 | 0.0 | 2.0 | 0.00 | 0.06 | 0.00 | 85 | 1015.2 |
| 20260504041605 | 48 | 202 | 0.0 | 2.0 | 0.00 | 0.06 | 0.00 | 85 | 1015.3 |
| 20260504041404 | 47 | 181 | 0.0 | 2.0 | 0.00 | 0.07 | 0.00 | 85 | 1015.1 |
| 20260504041204 | 47 | 176 | 0.0 | 3.0 | 0.00 | 0.07 | 0.00 | 85 | 1015.3 |
| 20260504041004 | 47 | 190 | 0.0 | 3.0 | 0.00 | 0.07 | 0.00 | 85 | 1015.1 |
| 20260504040805 | 47 | 195 | 0.0 | 3.0 | 0.00 | 0.07 | 0.00 | 85 | 1014.9 |
| 20260504040604 | 47 | 197 | 1.0 | 3.0 | 0.00 | 0.07 | 0.00 | 85 | 1015.2 |
| 20260504040404 | 47 | 204 | 1.0 | 3.0 | 0.00 | 0.07 | 0.00 | 85 | 1015.0 |
| 20260504040004 | 47 | 189 | 1.0 | 3.0 | 0.00 | 0.07 | 0.00 | 85 | 1015.0 |
| 20260504035804 | 47 | 164 | 1.0 | 4.0 | 0.00 | 0.07 | 0.00 | 85 | 1014.8 |
| 20260504035605 | 47 | 146 | 1.0 | 4.0 | 0.00 | 0.07 | 0.00 | 85 | 1014.9 |
| 20260504035204 | 47 | 135 | 1.0 | 4.0 | 0.00 | 0.07 | 0.00 | 86 | 1014.8 |
| 20260504035005 | 47 | 135 | 1.0 | 4.0 | 0.00 | 0.07 | 0.00 | 86 | 1014.7 |
| 20260504034805 | 47 | 135 | 1.0 | 3.0 | 0.00 | 0.07 | 0.00 | 86 | 1014.8 |
| 20260504034204 | 46 | 135 | 0.0 | 2.0 | 0.00 | 0.07 | 0.00 | 86 | 1014.6 |
| 20260504034004 | 46 | 142 | 0.0 | 2.0 | 0.00 | 0.07 | 0.00 | 85 | 1014.6 |
| 20260504033805 | 46 | 142 | 0.0 | 2.0 | 0.00 | 0.07 | 0.00 | 85 | 1014.7 |
| 20260504033604 | 46 | 142 | 0.0 | 2.0 | 0.00 | 0.07 | 0.00 | 85 | 1014.8 |
| 20260504033404 | 45 | 143 | 0.0 | 2.0 | 0.00 | 0.07 | 0.00 | 85 | 1014.5 |
| 20260504033205 | 46 | 181 | 0.0 | 1.0 | 0.00 | 0.07 | 0.00 | 84 | 1014.7 |
| 20260504033004 | 45 | 181 | 0.0 | 2.0 | 0.00 | 0.07 | 0.00 | 84 | 1014.8 |
| 20260504032804 | 46 | 181 | 0.0 | 2.0 | 0.00 | 0.07 | 0.00 | 83 | 1014.7 |
| 20260504032604 | 46 | 170 | 0.0 | 2.0 | 0.00 | 0.07 | 0.00 | 83 | 1014.7 |
| 20260504032204 | 46 | 166 | 0.0 | 2.0 | 0.00 | 0.07 | 0.00 | 83 | 1014.7 |
| 20260504032004 | 46 | 159 | 0.0 | 3.0 | 0.00 | 0.07 | 0.00 | 83 | 1014.8 |
| 20260504031804 | 46 | 155 | 0.0 | 3.0 | 0.00 | 0.07 | 0.00 | 83 | 1014.7 |
| 20260504031604 | 46 | 148 | 0.0 | 3.0 | 0.00 | 0.07 | 0.00 | 83 | 1014.8 |
| 20260504031404 | 46 | 143 | 0.0 | 3.0 | 0.00 | 0.07 | 0.00 | 84 | 1014.8 |
| 20260504031204 | 47 | 144 | 1.0 | 3.0 | 0.00 | 0.07 | 0.00 | 84 | 1014.7 |
| 20260504031004 | 46 | 139 | 0.0 | 3.0 | 0.00 | 0.07 | 0.00 | 84 | 1014.8 |
| 20260504030604 | 46 | 138 | 0.0 | 3.0 | 0.00 | 0.07 | 0.00 | 84 | 1014.8 |
| 20260504030405 | 46 | 139 | 0.0 | 2.0 | 0.00 | 0.07 | 0.00 | 83 | 1014.7 |
| 20260504030005 | 46 | 135 | 0.0 | 2.0 | 0.00 | 0.07 | 0.00 | 82 | 1014.9 |
| 20260504025605 | 46 | 135 | 0.0 | 2.0 | 0.00 | 0.07 | 0.00 | 82 | 1014.8 |
| 20260504025205 | 46 | 135 | 0.0 | 2.0 | 0.00 | 0.07 | 0.00 | 81 | 1014.5 |
| 20260504025004 | 46 | 135 | 0.0 | 3.0 | 0.00 | 0.07 | 0.00 | 81 | 1014.7 |
| 20260504024604 | 46 | 137 | 0.0 | 3.0 | 0.00 | 0.07 | 0.00 | 81 | 1014.8 |
| 20260504024405 | 46 | 137 | 0.0 | 3.0 | 0.00 | 0.07 | 0.00 | 81 | 1014.8 |
| 20260504024204 | 46 | 137 | 0.0 | 3.0 | 0.00 | 0.07 | 0.00 | 81 | 1014.6 |
| 20260504024004 | 46 | 137 | 0.0 | 4.0 | 0.00 | 0.07 | 0.00 | 81 | 1014.7 |
| 20260504023804 | 46 | 141 | 0.0 | 4.0 | 0.00 | 0.07 | 0.00 | 81 | 1014.8 |
| 20260504023404 | 47 | 133 | 0.0 | 4.0 | 0.00 | 0.07 | 0.00 | 81 | 1014.6 |
| 20260504023005 | 47 | 144 | 0.0 | 3.0 | 0.00 | 0.07 | 0.00 | 80 | 1014.8 |
| 20260504022804 | 47 | 133 | 0.0 | 3.0 | 0.00 | 0.07 | 0.00 | 81 | 1014.8 |
| 20260504022605 | 47 | 112 | 0.0 | 3.0 | 0.00 | 0.07 | 0.00 | 81 | 1014.7 |
| 20260504022204 | 47 | 80 | 0.0 | 4.0 | 0.00 | 0.07 | 0.00 | 81 | 1014.7 |
| 20260504021804 | 47 | 93 | 1.0 | 4.0 | 0.00 | 0.07 | 0.00 | 81 | 1014.8 |
| 20260504021604 | 47 | 116 | 1.0 | 4.0 | 0.00 | 0.07 | 0.00 | 80 | 1014.7 |
| 20260504021404 | 47 | 128 | 1.0 | 4.0 | 0.00 | 0.07 | 0.00 | 80 | 1014.6 |
| 20260504021005 | 47 | 166 | 0.0 | 3.0 | 0.00 | 0.07 | 0.00 | 80 | 1014.8 |
| 20260504020804 | 47 | 176 | 0.0 | 2.0 | 0.00 | 0.07 | 0.00 | 79 | 1014.7 |
| 20260504020604 | 47 | 176 | 0.0 | 2.0 | 0.00 | 0.07 | 0.00 | 79 | 1014.9 |
| 20260504020404 | 47 | 169 | 0.0 | 2.0 | 0.00 | 0.07 | 0.00 | 79 | 1015.0 |
| 20260504020004 | 47 | 158 | 0.0 | 2.0 | 0.00 | 0.07 | 0.00 | 79 | 1014.8 |
| 20260504015804 | 47 | 154 | 0.0 | 2.0 | 0.00 | 0.07 | 0.00 | 79 | 1014.9 |
| 20260504015604 | 47 | 145 | 0.0 | 2.0 | 0.00 | 0.07 | 0.00 | 79 | 1015.0 |
| 20260504015404 | 47 | 144 | 0.0 | 2.0 | 0.00 | 0.07 | 0.00 | 79 | 1014.7 |
| 20260504015004 | 47 | 158 | 0.0 | 3.0 | 0.00 | 0.07 | 0.00 | 79 | 1014.9 |
| 20260504014804 | 47 | 158 | 0.0 | 3.0 | 0.00 | 0.07 | 0.00 | 79 | 1014.9 |
| 20260504014404 | 47 | 148 | 1.0 | 6.0 | 0.00 | 0.07 | 0.00 | 79 | 1014.8 |
| 20260504014204 | 47 | 119 | 1.0 | 6.0 | 0.00 | 0.07 | 0.00 | 79 | 1014.8 |
| 20260504014004 | 47 | 113 | 1.0 | 6.0 | 0.00 | 0.07 | 0.00 | 79 | 1014.9 |
| 20260504013805 | 47 | 120 | 1.0 | 6.0 | 0.00 | 0.07 | 0.00 | 79 | 1014.7 |
| 20260504013604 | 47 | 117 | 1.0 | 6.0 | 0.00 | 0.07 | 0.00 | 79 | 1015.0 |
| 20260504013405 | 47 | 113 | 1.0 | 6.0 | 0.00 | 0.07 | 0.00 | 79 | 1014.8 |
| 20260504013205 | 47 | 140 | 1.0 | 5.0 | 0.00 | 0.07 | 0.00 | 78 | 1014.8 |
| 20260504013004 | 47 | 142 | 1.0 | 5.0 | 0.00 | 0.07 | 0.00 | 79 | 1014.8 |
| 20260504012804 | 47 | 133 | 1.0 | 5.0 | 0.00 | 0.07 | 0.00 | 79 | 1014.7 |
| 20260504012605 | 48 | 126 | 1.0 | 5.0 | 0.00 | 0.07 | 0.00 | 79 | 1014.8 |
| 20260504012404 | 47 | 103 | 1.0 | 4.0 | 0.00 | 0.07 | 0.00 | 78 | 1014.7 |
| 20260504012205 | 47 | 117 | 1.0 | 4.0 | 0.00 | 0.07 | 0.00 | 78 | 1014.6 |
| 20260504012004 | 47 | 115 | 1.0 | 4.0 | 0.00 | 0.07 | 0.00 | 79 | 1014.6 |
| 20260504011605 | 48 | 95 | 0.0 | 4.0 | 0.00 | 0.07 | 0.00 | 78 | 1014.7 |
| 20260504011404 | 47 | 160 | 0.0 | 2.0 | 0.00 | 0.07 | 0.00 | 77 | 1014.9 |
| 20260504011205 | 47 | 181 | 0.0 | 2.0 | 0.00 | 0.07 | 0.00 | 77 | 1014.8 |
| 20260504011004 | 47 | 181 | 0.0 | 1.0 | 0.00 | 0.07 | 0.00 | 77 | 1014.8 |
| 20260504010805 | 47 | 181 | 0.0 | 1.0 | 0.00 | 0.07 | 0.00 | 78 | 1014.8 |
| 20260504010604 | 47 | 181 | 0.0 | 1.0 | 0.00 | 0.07 | 0.00 | 76 | 1014.7 |
| 20260504010404 | 47 | 175 | 0.0 | 2.0 | 0.00 | 0.07 | 0.00 | 76 | 1014.6 |
| 20260504010004 | 47 | 164 | 0.0 | 2.0 | 0.00 | 0.07 | 0.00 | 76 | 1014.8 |
| 20260504005804 | 47 | 158 | 0.0 | 2.0 | 0.00 | 0.07 | 0.00 | 76 | 1014.6 |
| 20260504005405 | 47 | 158 | 0.0 | 2.0 | 0.00 | 0.07 | 0.00 | 76 | 1014.7 |
| 20260504005004 | 47 | 156 | 0.0 | 2.0 | 0.00 | 0.07 | 0.00 | 77 | 1014.8 |
| 20260504004805 | 47 | 154 | 0.0 | 2.0 | 0.00 | 0.07 | 0.00 | 76 | 1014.7 |
| 20260504004604 | 47 | 153 | 0.0 | 2.0 | 0.00 | 0.07 | 0.00 | 76 | 1014.8 |
| 20260504004404 | 47 | 148 | 0.0 | 3.0 | 0.00 | 0.07 | 0.00 | 76 | 1014.9 |
| 20260504004204 | 47 | 146 | 0.0 | 3.0 | 0.00 | 0.07 | 0.00 | 76 | 1014.8 |
| 20260504004004 | 47 | 148 | 0.0 | 3.0 | 0.00 | 0.07 | 0.00 | 76 | 1014.8 |
| 20260504003604 | 47 | 154 | 0.0 | 3.0 | 0.00 | 0.07 | 0.00 | 76 | 1014.7 |
| 20260504003404 | 47 | 157 | 0.0 | 3.0 | 0.00 | 0.07 | 0.00 | 76 | 1014.5 |
| 20260504003204 | 48 | 175 | 0.0 | 3.0 | 0.00 | 0.07 | 0.00 | 76 | 1014.8 |
| 20260504003004 | 47 | 181 | 0.0 | 3.0 | 0.00 | 0.07 | 0.00 | 76 | 1014.7 |
| 20260504002804 | 48 | 181 | 0.0 | 3.0 | 0.00 | 0.07 | 0.00 | 76 | 1014.5 |
| 20260504002604 | 48 | 182 | 0.0 | 3.0 | 0.00 | 0.07 | 0.00 | 76 | 1014.7 |
| 20260504002404 | 48 | 186 | 0.0 | 3.0 | 0.00 | 0.07 | 0.00 | 77 | 1014.6 |
| 20260504002204 | 48 | 172 | 0.0 | 4.0 | 0.00 | 0.07 | 0.00 | 76 | 1014.4 |
| 20260504002004 | 48 | 159 | 1.0 | 4.0 | 0.00 | 0.07 | 0.00 | 76 | 1014.4 |
| 20260504001404 | 48 | 166 | 1.0 | 4.0 | 0.00 | 0.07 | 0.00 | 77 | 1014.5 |
| 20260504001204 | 47 | 171 | 1.0 | 4.0 | 0.00 | 0.07 | 0.00 | 78 | 1014.7 |
| 20260504001004 | 47 | 182 | 0.0 | 4.0 | 0.00 | 0.07 | 0.00 | 78 | 1014.6 |
| 20260504000804 | 47 | 181 | 0.0 | 2.0 | 0.00 | 0.07 | 0.00 | 77 | 1014.6 |
| 20260504000604 | 47 | 181 | 0.0 | 2.0 | 0.00 | 0.07 | 0.00 | 76 | 1014.7 |
| 20260504000204 | 47 | 172 | 0.0 | 2.0 | 0.00 | 0.07 | 0.00 | 76 | 1014.7 |
| 20260504000004 | 47 | 163 | 0.0 | 2.0 | 0.00 | 0.07 | 0.00 | 76 | 1014.5 |
| 20260503235804 | 47 | 142 | 0.0 | 1.0 | 0.00 | 0.07 | 0.00 | 76 | 1014.8 |
| 20260503235604 | 47 | 179 | 0.0 | 2.0 | 0.00 | 0.07 | 0.00 | 76 | 1014.7 |
| 20260503235404 | 47 | 221 | 0.0 | 2.0 | 0.00 | 0.07 | 0.00 | 76 | 1014.7 |
| 20260503235204 | 47 | 222 | 0.0 | 2.0 | 0.00 | 0.07 | 0.00 | 75 | 1014.8 |
| 20260503235004 | 47 | 197 | 0.0 | 2.0 | 0.00 | 0.07 | 0.00 | 75 | 1014.7 |
| 20260503234804 | 48 | 200 | 0.0 | 2.0 | 0.00 | 0.07 | 0.00 | 75 | 1014.7 |
| 20260503234604 | 47 | 203 | 0.0 | 3.0 | 0.00 | 0.07 | 0.00 | 75 | 1014.6 |
| 20260503233604 | 48 | 175 | 0.0 | 2.0 | 0.00 | 0.07 | 0.00 | 75 | 1014.6 |
| 20260503233204 | 48 | 177 | 0.0 | 3.0 | 0.00 | 0.07 | 0.00 | 75 | 1014.7 |
| 20260503233004 | 48 | 177 | 1.0 | 3.0 | 0.00 | 0.07 | 0.00 | 75 | 1014.7 |
| 20260503232805 | 48 | 177 | 1.0 | 3.0 | 0.00 | 0.07 | 0.00 | 75 | 1014.7 |
| 20260503232604 | 48 | 177 | 1.0 | 3.0 | 0.00 | 0.07 | 0.00 | 75 | 1014.6 |
| 20260503232204 | 47 | 170 | 0.0 | 2.0 | 0.00 | 0.07 | 0.00 | 75 | 1014.7 |
| 20260503232004 | 47 | 165 | 0.0 | 2.0 | 0.00 | 0.07 | 0.00 | 74 | 1014.5 |
| 20260503231605 | 48 | 166 | 0.0 | 2.0 | 0.00 | 0.07 | 0.00 | 73 | 1015.0 |
| 20260503231404 | 47 | 176 | 0.0 | 2.0 | 0.00 | 0.07 | 0.00 | 73 | 1014.7 |
| 20260503231204 | 48 | 181 | 0.0 | 2.0 | 0.00 | 0.07 | 0.00 | 72 | 1014.7 |
| 20260503231005 | 49 | 181 | 0.0 | 2.0 | 0.00 | 0.07 | 0.00 | 72 | 1014.7 |
| 20260503230604 | 49 | 168 | 1.0 | 3.0 | 0.00 | 0.07 | 0.00 | 72 | 1014.8 |
| 20260503230404 | 49 | 167 | 1.0 | 3.0 | 0.00 | 0.07 | 0.00 | 72 | 1014.7 |
| 20260503230204 | 49 | 165 | 1.0 | 3.0 | 0.00 | 0.07 | 0.00 | 72 | 1014.6 |
| 20260503230004 | 49 | 159 | 1.0 | 3.0 | 0.00 | 0.07 | 0.00 | 72 | 1014.6 |
| 20260503225804 | 49 | 149 | 0.0 | 3.0 | 0.00 | 0.07 | 0.00 | 72 | 1014.5 |
| 20260503225604 | 49 | 163 | 0.0 | 2.0 | 0.00 | 0.07 | 0.00 | 71 | 1014.7 |
| 20260503225404 | 49 | 66 | 0.0 | 3.0 | 0.00 | 0.07 | 0.00 | 71 | 1014.6 |
| 20260503225205 | 49 | 18 | 0.0 | 4.0 | 0.00 | 0.07 | 0.00 | 71 | 1014.7 |
| 20260503225004 | 50 | 2 | 0.0 | 4.0 | 0.00 | 0.07 | 0.00 | 71 | 1014.6 |
| 20260503224805 | 49 | 16 | 1.0 | 4.0 | 0.00 | 0.07 | 0.00 | 71 | 1014.8 |
| 20260503224605 | 50 | 12 | 1.0 | 4.0 | 0.00 | 0.07 | 0.00 | 71 | 1014.4 |
| 20260503224404 | 50 | 7 | 1.0 | 4.0 | 0.00 | 0.07 | 0.00 | 71 | 1014.7 |
| 20260503224204 | 50 | 17 | 1.0 | 4.0 | 0.00 | 0.07 | 0.00 | 71 | 1014.5 |
| 20260503224005 | 50 | 131 | 1.0 | 4.0 | 0.00 | 0.07 | 0.00 | 71 | 1014.4 |
| 20260503223805 | 50 | 207 | 0.0 | 4.0 | 0.00 | 0.07 | 0.00 | 71 | 1014.5 |
| 20260503223604 | 50 | 200 | 0.0 | 2.0 | 0.00 | 0.08 | 0.00 | 70 | 1014.6 |
| 20260503223404 | 50 | 181 | 0.0 | 2.0 | 0.00 | 0.08 | 0.00 | 70 | 1014.5 |
| 20260503223204 | 50 | 181 | 0.0 | 1.0 | 0.00 | 0.08 | 0.00 | 69 | 1014.6 |
| 20260503223004 | 50 | 212 | 0.0 | 4.0 | 0.00 | 0.08 | 0.00 | 69 | 1014.7 |
| 20260503222604 | 50 | 253 | 1.0 | 4.0 | 0.00 | 0.08 | 0.00 | 69 | 1014.8 |
| 20260503222205 | 51 | 254 | 2.0 | 5.0 | 0.00 | 0.08 | 0.00 | 69 | 1014.7 |
| 20260503222005 | 51 | 260 | 2.0 | 5.0 | 0.00 | 0.08 | 0.00 | 70 | 1014.7 |
| 20260503221804 | 51 | 261 | 2.0 | 5.0 | 0.00 | 0.08 | 0.00 | 70 | 1014.7 |
| 20260503221604 | 50 | 258 | 1.0 | 5.0 | 0.00 | 0.08 | 0.00 | 70 | 1014.7 |
| 20260503221404 | 51 | 262 | 1.0 | 5.0 | 0.00 | 0.08 | 0.00 | 70 | 1014.9 |
| 20260503221005 | 50 | 217 | 0.0 | 4.0 | 0.00 | 0.08 | 0.00 | 70 | 1015.0 |
| 20260503220804 | 50 | 181 | 0.0 | 2.0 | 0.00 | 0.08 | 0.00 | 70 | 1014.8 |
| 20260503220604 | 50 | 181 | 0.0 | 4.0 | 0.00 | 0.08 | 0.00 | 70 | 1014.8 |
| 20260503220405 | 50 | 203 | 0.0 | 4.0 | 0.00 | 0.08 | 0.00 | 70 | 1014.8 |
| 20260503220204 | 50 | 245 | 1.0 | 5.0 | 0.00 | 0.08 | 0.00 | 70 | 1014.8 |
| 20260503220004 | 50 | 256 | 1.0 | 5.0 | 0.00 | 0.08 | 0.00 | 70 | 1014.8 |
| 20260503215804 | 51 | 268 | 1.0 | 5.0 | 0.00 | 0.08 | 0.00 | 70 | 1014.6 |
| 20260503215605 | 51 | 273 | 1.0 | 5.0 | 0.00 | 0.08 | 0.00 | 70 | 1014.6 |
| 20260503215404 | 51 | 272 | 2.0 | 5.0 | 0.00 | 0.08 | 0.00 | 70 | 1014.7 |
| 20260503215205 | 51 | 259 | 2.0 | 5.0 | 0.00 | 0.08 | 0.00 | 70 | 1015.0 |
| 20260503215004 | 51 | 255 | 2.0 | 5.0 | 0.00 | 0.08 | 0.00 | 70 | 1014.8 |
| 20260503214805 | 51 | 252 | 2.0 | 5.0 | 0.00 | 0.08 | 0.00 | 71 | 1014.8 |
| 20260503214604 | 51 | 250 | 2.0 | 5.0 | 0.00 | 0.08 | 0.00 | 71 | 1014.6 |
| 20260503214404 | 51 | 247 | 1.0 | 4.0 | 0.00 | 0.08 | 0.00 | 71 | 1014.7 |
| 20260503214205 | 51 | 242 | 1.0 | 4.0 | 0.00 | 0.08 | 0.00 | 71 | 1015.0 |
| 20260503214004 | 50 | 244 | 1.0 | 4.0 | 0.00 | 0.08 | 0.00 | 72 | 1014.9 |
| 20260503213404 | 50 | 237 | 1.0 | 3.0 | 0.00 | 0.08 | 0.00 | 71 | 1015.0 |
| 20260503213204 | 51 | 250 | 1.0 | 4.0 | 0.00 | 0.08 | 0.00 | 70 | 1014.9 |
| 20260503212804 | 50 | 232 | 1.0 | 4.0 | 0.00 | 0.08 | 0.00 | 69 | 1014.8 |
| 20260503212605 | 50 | 216 | 1.0 | 6.0 | 0.00 | 0.08 | 0.00 | 69 | 1014.8 |
| 20260503212404 | 51 | 204 | 1.0 | 6.0 | 0.00 | 0.08 | 0.00 | 69 | 1014.7 |
| 20260503212204 | 51 | 201 | 2.0 | 6.0 | 0.00 | 0.08 | 0.00 | 69 | 1014.7 |
| 20260503212004 | 51 | 208 | 2.0 | 6.0 | 0.00 | 0.08 | 0.00 | 69 | 1014.8 |
| 20260503211804 | 51 | 208 | 2.0 | 6.0 | 0.00 | 0.08 | 0.00 | 69 | 1014.9 |
| 20260503211604 | 51 | 208 | 2.0 | 5.0 | 0.00 | 0.08 | 0.00 | 69 | 1014.6 |
| 20260503211405 | 51 | 221 | 2.0 | 5.0 | 0.00 | 0.08 | 0.00 | 68 | 1014.8 |
| 20260503211204 | 51 | 229 | 2.0 | 5.0 | 0.00 | 0.08 | 0.00 | 68 | 1014.7 |
| 20260503210805 | 51 | 239 | 1.0 | 4.0 | 0.00 | 0.08 | 0.00 | 68 | 1014.6 |
| 20260503210605 | 51 | 266 | 1.0 | 5.0 | 0.00 | 0.08 | 0.00 | 68 | 1014.5 |
| 20260503210204 | 51 | 258 | 1.0 | 5.0 | 0.00 | 0.08 | 0.00 | 68 | 1014.9 |
| 20260503205804 | 51 | 248 | 1.0 | 5.0 | 0.00 | 0.08 | 0.08 | 68 | 1014.8 |
| 20260503205604 | 51 | 240 | 1.0 | 4.0 | 0.00 | 0.08 | 0.08 | 67 | 1014.8 |
| 20260503205404 | 51 | 242 | 1.0 | 5.0 | 0.00 | 0.08 | 0.08 | 67 | 1014.6 |
| 20260503205204 | 51 | 250 | 1.0 | 5.0 | 0.00 | 0.08 | 0.08 | 67 | 1014.8 |
| 20260503205004 | 51 | 260 | 1.0 | 5.0 | 0.00 | 0.08 | 0.08 | 67 | 1014.9 |
| 20260503204804 | 51 | 256 | 1.0 | 5.0 | 0.00 | 0.08 | 0.08 | 66 | 1014.7 |
| 20260503204605 | 51 | 255 | 2.0 | 5.0 | 0.00 | 0.08 | 0.08 | 66 | 1014.9 |
| 20260503204404 | 52 | 252 | 2.0 | 6.0 | 0.00 | 0.08 | 0.08 | 66 | 1014.7 |
| 20260503204204 | 51 | 247 | 2.0 | 6.0 | 0.00 | 0.08 | 0.08 | 66 | 1014.7 |
| 20260503204004 | 52 | 243 | 2.0 | 6.0 | 0.00 | 0.08 | 0.08 | 66 | 1014.7 |
| 20260503203804 | 52 | 246 | 2.0 | 6.0 | 0.00 | 0.08 | 0.08 | 66 | 1014.7 |
| 20260503203604 | 51 | 243 | 2.0 | 6.0 | 0.00 | 0.08 | 0.08 | 66 | 1014.8 |
| 20260503203404 | 52 | 242 | 2.0 | 6.0 | 0.00 | 0.08 | 0.08 | 66 | 1014.3 |
| 20260503203004 | 52 | 250 | 2.0 | 6.0 | 0.00 | 0.08 | 0.08 | 66 | 1014.7 |
| 20260503202804 | 51 | 245 | 2.0 | 7.0 | 0.00 | 0.08 | 0.08 | 66 | 1014.8 |
| 20260503202604 | 51 | 246 | 2.0 | 7.0 | 0.00 | 0.08 | 0.08 | 66 | 1014.8 |
| 20260503202404 | 52 | 249 | 2.0 | 7.0 | 0.00 | 0.08 | 0.08 | 66 | 1014.8 |
| 20260503202204 | 51 | 245 | 2.0 | 7.0 | 0.00 | 0.08 | 0.08 | 66 | 1014.6 |
| 20260503202005 | 52 | 249 | 2.0 | 7.0 | 0.00 | 0.08 | 0.08 | 66 | 1014.9 |
| 20260503201804 | 52 | 253 | 1.0 | 7.0 | 0.00 | 0.08 | 0.08 | 66 | 1014.5 |
| 20260503201604 | 52 | 250 | 2.0 | 7.0 | 0.00 | 0.08 | 0.08 | 66 | 1014.8 |
| 20260503201405 | 52 | 259 | 2.0 | 7.0 | 0.00 | 0.08 | 0.08 | 66 | 1014.8 |
| 20260503201205 | 52 | 274 | 2.0 | 8.0 | 0.00 | 0.08 | 0.08 | 66 | 1014.8 |
| 20260503201004 | 52 | 258 | 2.0 | 8.0 | 0.00 | 0.08 | 0.08 | 66 | 1014.7 |
| 20260503200804 | 52 | 255 | 2.0 | 8.0 | 0.00 | 0.08 | 0.08 | 66 | 1014.9 |
| 20260503200605 | 52 | 273 | 2.0 | 8.0 | 0.00 | 0.08 | 0.08 | 66 | 1014.8 |
| 20260503200404 | 52 | 274 | 3.0 | 8.0 | 0.00 | 0.08 | 0.08 | 66 | 1014.8 |
| 20260503200204 | 52 | 269 | 3.0 | 8.0 | 0.00 | 0.08 | 0.08 | 66 | 1014.8 |
| 20260503200004 | 52 | 273 | 3.0 | 8.0 | 0.00 | 0.08 | 0.08 | 65 | 1014.4 |
| 20260503195804 | 52 | 274 | 3.0 | 8.0 | 0.00 | 0.08 | 0.08 | 66 | 1014.6 |
| 20260503195604 | 52 | 268 | 2.0 | 8.0 | 0.00 | 0.08 | 0.08 | 66 | 1014.7 |
| 20260503195404 | 52 | 270 | 2.0 | 8.0 | 0.00 | 0.08 | 0.08 | 66 | 1014.6 |
| 20260503195005 | 52 | 266 | 1.0 | 7.0 | 0.00 | 0.08 | 0.08 | 66 | 1014.5 |
| 20260503194804 | 51 | 271 | 1.0 | 7.0 | 0.00 | 0.08 | 0.08 | 65 | 1014.7 |
| 20260503194404 | 52 | 277 | 2.0 | 7.0 | 0.00 | 0.08 | 0.08 | 66 | 1014.7 |
| 20260503194204 | 51 | 270 | 1.0 | 7.0 | 0.00 | 0.08 | 0.08 | 65 | 1014.5 |
| 20260503193604 | 52 | 257 | 1.0 | 4.0 | 0.00 | 0.08 | 0.08 | 65 | 1014.7 |
| 20260503193405 | 52 | 253 | 1.0 | 5.0 | 0.00 | 0.08 | 0.08 | 65 | 1014.8 |
| 20260503193204 | 52 | 249 | 2.0 | 5.0 | 0.00 | 0.08 | 0.08 | 65 | 1014.7 |
| 20260503193004 | 52 | 253 | 2.0 | 5.0 | 0.00 | 0.08 | 0.08 | 65 | 1014.6 |
| 20260503192804 | 52 | 255 | 3.0 | 5.0 | 0.00 | 0.08 | 0.08 | 65 | 1014.7 |
| 20260503192604 | 52 | 256 | 3.0 | 7.0 | 0.00 | 0.08 | 0.08 | 65 | 1014.6 |
| 20260503192405 | 52 | 261 | 3.0 | 8.0 | 0.00 | 0.08 | 0.08 | 65 | 1014.5 |
| 20260503192204 | 52 | 270 | 3.0 | 8.0 | 0.00 | 0.08 | 0.08 | 64 | 1014.5 |
| 20260503192005 | 52 | 267 | 3.0 | 8.0 | 0.00 | 0.08 | 0.08 | 65 | 1014.7 |
| 20260503191804 | 53 | 277 | 3.0 | 8.0 | 0.00 | 0.08 | 0.08 | 64 | 1014.7 |
| 20260503191604 | 52 | 277 | 3.0 | 9.0 | 0.00 | 0.08 | 0.08 | 65 | 1014.5 |
| 20260503191404 | 52 | 276 | 3.0 | 9.0 | 0.00 | 0.08 | 0.08 | 65 | 1014.6 |
| 20260503191004 | 52 | 283 | 3.0 | 9.0 | 0.00 | 0.08 | 0.08 | 65 | 1014.6 |
| 20260503190805 | 52 | 278 | 3.0 | 9.0 | 0.00 | 0.08 | 0.08 | 65 | 1014.5 |
| 20260503190404 | 52 | 292 | 3.0 | 8.0 | 0.00 | 0.08 | 0.08 | 65 | 1014.5 |
| 20260503185804 | 52 | 318 | 1.0 | 7.0 | 0.00 | 0.08 | 0.08 | 65 | 1014.5 |
| 20260503185404 | 52 | 316 | 1.0 | 5.0 | 0.00 | 0.08 | 0.08 | 66 | 1014.5 |
| 20260503185204 | 52 | 287 | 1.0 | 5.0 | 0.00 | 0.08 | 0.08 | 66 | 1014.5 |
| 20260503185004 | 52 | 295 | 1.0 | 5.0 | 0.00 | 0.08 | 0.08 | 65 | 1014.5 |
| 20260503184604 | 52 | 299 | 1.0 | 5.0 | 0.00 | 0.08 | 0.08 | 65 | 1014.3 |
| 20260503184404 | 52 | 293 | 1.0 | 5.0 | 0.00 | 0.08 | 0.08 | 65 | 1014.3 |
| 20260503184204 | 52 | 299 | 1.0 | 5.0 | 0.00 | 0.08 | 0.08 | 65 | 1014.4 |
| 20260503184004 | 52 | 270 | 1.0 | 4.0 | 0.00 | 0.08 | 0.08 | 65 | 1014.3 |
| 20260503183804 | 52 | 256 | 1.0 | 4.0 | 0.00 | 0.08 | 0.08 | 64 | 1014.3 |
| 20260503183604 | 52 | 230 | 1.0 | 3.0 | 0.00 | 0.08 | 0.08 | 65 | 1014.3 |
| 20260503183404 | 53 | 222 | 1.0 | 5.0 | 0.00 | 0.08 | 0.08 | 64 | 1014.2 |
| 20260503183204 | 53 | 247 | 1.0 | 5.0 | 0.00 | 0.08 | 0.08 | 64 | 1014.3 |
| 20260503183004 | 52 | 17 | 1.0 | 6.0 | 0.00 | 0.08 | 0.08 | 64 | 1014.3 |
| 20260503182804 | 52 | 341 | 2.0 | 6.0 | 0.00 | 0.08 | 0.08 | 64 | 1014.3 |
| 20260503182604 | 52 | 327 | 2.0 | 6.0 | 0.00 | 0.08 | 0.08 | 64 | 1014.0 |
| 20260503182404 | 52 | 336 | 2.0 | 6.0 | 0.00 | 0.08 | 0.08 | 64 | 1014.2 |
| 20260503182204 | 52 | 353 | 1.0 | 6.0 | 0.00 | 0.08 | 0.08 | 64 | 1014.2 |
| 20260503182005 | 52 | 339 | 1.0 | 5.0 | 0.00 | 0.08 | 0.08 | 65 | 1013.9 |
| 20260503181804 | 53 | 6 | 1.0 | 4.0 | 0.00 | 0.08 | 0.08 | 65 | 1013.8 |
| 20260503181604 | 52 | 25 | 1.0 | 4.0 | 0.00 | 0.08 | 0.08 | 65 | 1013.9 |
| 20260503181404 | 53 | 19 | 1.0 | 6.0 | 0.00 | 0.08 | 0.08 | 65 | 1013.9 |
| 20260503181205 | 53 | 11 | 2.0 | 9.0 | 0.00 | 0.08 | 0.08 | 65 | 1014.0 |
| 20260503181004 | 52 | 30 | 2.0 | 9.0 | 0.00 | 0.08 | 0.08 | 65 | 1013.9 |
| 20260503180604 | 53 | 67 | 3.0 | 9.0 | 0.00 | 0.08 | 0.08 | 65 | 1013.9 |
| 20260503180404 | 53 | 138 | 3.0 | 9.0 | 0.00 | 0.08 | 0.08 | 65 | 1013.8 |
| 20260503180204 | 52 | 196 | 2.0 | 11.0 | 0.00 | 0.08 | 0.08 | 65 | 1013.8 |
| 20260503180004 | 53 | 297 | 3.0 | 11.0 | 0.00 | 0.08 | 0.08 | 65 | 1014.0 |
| 20260503175804 | 53 | 328 | 3.0 | 11.0 | 0.00 | 0.08 | 0.08 | 65 | 1013.8 |
| 20260503175604 | 53 | 331 | 3.0 | 11.0 | 0.00 | 0.08 | 0.08 | 65 | 1013.8 |
| 20260503175405 | 53 | 358 | 3.0 | 11.0 | 0.00 | 0.08 | 0.08 | 65 | 1013.8 |
| 20260503175204 | 53 | 28 | 3.0 | 8.0 | 0.00 | 0.08 | 0.08 | 65 | 1013.8 |
| 20260503175004 | 52 | 21 | 3.0 | 8.0 | 0.00 | 0.08 | 0.08 | 65 | 1013.8 |
| 20260503174804 | 53 | 13 | 3.0 | 9.0 | 0.00 | 0.08 | 0.08 | 65 | 1013.5 |
| 20260503174604 | 53 | 38 | 3.0 | 9.0 | 0.00 | 0.08 | 0.08 | 65 | 1013.7 |
| 20260503174004 | 53 | 356 | 3.0 | 11.0 | 0.00 | 0.08 | 0.08 | 64 | 1013.6 |
| 20260503173804 | 53 | 354 | 3.0 | 11.0 | 0.00 | 0.08 | 0.08 | 64 | 1013.6 |
| 20260503173605 | 53 | 347 | 3.0 | 11.0 | 0.00 | 0.08 | 0.08 | 64 | 1013.4 |
| 20260503173405 | 53 | 10 | 3.0 | 11.0 | 0.00 | 0.08 | 0.08 | 64 | 1013.4 |
| 20260503173204 | 53 | 15 | 3.0 | 9.0 | 0.00 | 0.08 | 0.08 | 64 | 1013.3 |
| 20260503173004 | 53 | 28 | 3.0 | 9.0 | 0.00 | 0.08 | 0.08 | 63 | 1013.5 |
| 20260503172804 | 53 | 52 | 2.0 | 8.0 | 0.00 | 0.08 | 0.08 | 64 | 1013.3 |
| 20260503172605 | 53 | 62 | 2.0 | 8.0 | 0.00 | 0.08 | 0.08 | 63 | 1013.4 |
| 20260503172404 | 53 | 40 | 2.0 | 8.0 | 0.00 | 0.08 | 0.08 | 63 | 1013.3 |
| 20260503172204 | 53 | 39 | 2.0 | 7.0 | 0.00 | 0.08 | 0.08 | 63 | 1013.5 |
| 20260503171804 | 53 | 1 | 2.0 | 9.0 | 0.00 | 0.08 | 0.08 | 64 | 1013.4 |
| 20260503171604 | 53 | 347 | 2.0 | 9.0 | 0.00 | 0.08 | 0.08 | 63 | 1013.4 |
| 20260503171404 | 54 | 6 | 3.0 | 10.0 | 0.00 | 0.08 | 0.08 | 63 | 1013.4 |
| 20260503171205 | 54 | 16 | 3.0 | 11.0 | 0.00 | 0.08 | 0.08 | 62 | 1013.2 |
| 20260503171005 | 54 | 6 | 4.0 | 11.0 | 0.00 | 0.08 | 0.08 | 62 | 1013.2 |
| 20260503170804 | 54 | 12 | 4.0 | 11.0 | 0.00 | 0.08 | 0.08 | 62 | 1013.4 |
| 20260503170604 | 54 | 1 | 5.0 | 11.0 | 0.00 | 0.08 | 0.08 | 63 | 1013.3 |
| 20260503170205 | 54 | 341 | 5.0 | 11.0 | 0.00 | 0.08 | 0.08 | 62 | 1013.2 |
| 20260503160205 | 59 | 14 | 6.0 | 15.0 | 0.00 | 0.08 | 0.08 | 53 | 1012.5 |
| 20260503151005 | 59 | 1 | 7.0 | 21.0 | 0.00 | 0.08 | 0.08 | 50 | 1012.4 |
| 20260503150804 | 59 | 355 | 7.0 | 21.0 | 0.00 | 0.08 | 0.08 | 47 | 1012.6 |
| 20260503150404 | 59 | 1 | 6.0 | 21.0 | 0.00 | 0.08 | 0.08 | 47 | 1012.6 |
| 20260503150204 | 60 | 349 | 6.0 | 21.0 | 0.00 | 0.08 | 0.08 | 47 | 1012.3 |
| 20260503140204 | 57 | 26 | 7.0 | 19.0 | 0.00 | 0.08 | 0.08 | 52 | 1012.5 |
| 20260503131204 | 57 | 351 | 4.0 | 15.0 | 0.00 | 0.08 | 0.08 | 56 | 1012.7 |
| 20260503131004 | 57 | 345 | 4.0 | 13.0 | 0.00 | 0.08 | 0.08 | 56 | 1012.5 |
| 20260503130804 | 57 | 356 | 4.0 | 13.0 | 0.00 | 0.08 | 0.08 | 56 | 1012.6 |
| 20260503130404 | 57 | 308 | 4.0 | 13.0 | 0.00 | 0.08 | 0.08 | 55 | 1012.8 |
| 20260503130204 | 57 | 331 | 4.0 | 13.0 | 0.00 | 0.08 | 0.08 | 56 | 1012.7 |
| 20260503110404 | 55 | 11 | 7.0 | 18.0 | 0.00 | 0.08 | 0.08 | 63 | 1013.2 |
| 20260503110204 | 55 | 4 | 7.0 | 18.0 | 0.00 | 0.08 | 0.08 | 63 | 1013.1 |